Terug naar catalogus

STARLINK-36389

ActiefCommunicatieSSO
NORAD 67806·PAYLOAD·🇺🇸 United States

Gelanceerd Feb 15, 2026 vanaf Vandenberg Space Force Base

Loading…

Volgende Passages (komende 24 uur)

TLE

VersSource: CelesTrak SupGP

Epoch: Sep 15, 2026, 04:10 UTC

1 67806C 26032K   26258.17409722 -.00058510  00000+0 -18164-2 0  2585
2 67806  97.2853  84.6335 0001743  88.6341  50.3493 15.33466995    13

Volg STARLINK-36389 in realtime met AllMySat

Download on the App Store